[[{"header":{"parameterUnit":"m.s-1","parameterCategory":1,"la1":30.2991,"la2":30.254,"lo1":-89.0895,"lo2":-89.0444,"dy":0.0017,"dx":0.0017,"nx":28,"ny":28,"refTime":"2024-06-04T03:00:00:Z","depth":0,"parameterNumber":2,"parameterNumberName":"U-component_of_WINDS"},"data":[0,0,0,0,0,0,0,0,0,0,0,0,0,0,0,0,0,0,0,0,0,0,0,0,0,0,0,0,0,0,0,0,0,0,0,0,0,0,0,0,0,0,0,0,0,0,0,0,0,0,0,0,0,0,0,0,0,0,-0.6119,-0.6119,0,-0.6121,-0.6121,-0.6121,-0.6082,-0.6081,-0.608,-0.6079,-0.6083,-0.6084,-0.6085,0,0,0,0,0,0,0,0,0,0,0,0,0,-0.6084,-0.6085,-0.6119,-0.6119,-0.6119,-0.6121,-0.6121,-0.6121,-0.6082,-0.6081,-0.608,-0.6078,-0.6082,-0.6084,-0.6085,0,0,0,0,0,0,0,0,0,0,0,0,0,-0.6094,-0.6085,-0.6119,-0.61,-0.6098,-0.6121,-0.6121,-0.6121,-0.6082,-0.6081,-0.6079,-0.6078,-0.6082,-0.6084,-0.6085,-0.6127,0,0,-0.609,-0.6091,0,0,0,0,0,0,0,0,-0.6094,-0.6095,-0.6102,-0.6101,-0.6099,-0.6099,-0.611,-0.6123,-0.6083,-0.6088,-0.6079,-0.6077,-0.609,-0.6091,-0.6094,-0.6127,-0.6127,-0.609,-0.6091,-0.6092,-0.6092,0,0,0,0,0,0,0,-0.6093,-0.6095,-0.6119,-0.6102,-0.61,-0.6092,-0.6092,-0.6112,-0.6098,-0.6088,-0.6085,-0.6086,-0.6088,-0.6093,-0.6094,-0.6127,-0.609,-0.6092,-0.6093,-0.6093,-0.6196,-0.6198,0,0,0,0,0,0,-0.6095,-0.6095,-0.6119,-0.6119,-0.6092,-0.6094,-0.6093,-0.6101,-0.6098,-0.6095,-0.6087,-0.6084,-0.6091,-0.6092,-0.6094,-0.6143,-0.6092,-0.6093,-0.6094,-0.6194,-0.6196,-0.6198,0,0,0,0,0,0,-0.6094,-0.6097,-0.6119,-0.6106,-0.6109,-0.6096,-0.6105,-0.6102,-0.6106,-0.6097,-0.6094,-0.6094,-0.609,-0.6092,-0.6119,-0.6143,-0.6094,-0.6096,-0.6192,-0.6195,-0.6197,-0.6242,0,0,0,0,0,0,-0.6093,-0.6097,-0.6112,-0.6107,-0.6109,-0.6143,-0.6106,-0.6103,-0.6109,-0.6105,-0.6103,-0.6101,-0.6089,-0.6117,-0.6121,-0.6144,-0.6097,-0.619,-0.6193,-0.6196,-0.6238,-0.6246,-0.6252,0,0,0,0,0,-0.6092,-0.6124,-0.6113,-0.6116,-0.6127,-0.6145,-0.6146,-0.6131,-0.6111,-0.6126,-0.6121,-0.6101,-0.614,-0.612,-0.6124,-0.6149,-0.6188,-0.6192,-0.6196,-0.6235,-0.6244,-0.6252,0,0,0,0,0,0,-0.6132,-0.6123,-0.611,-0.6142,-0.6144,-0.6138,-0.6157,-0.6141,-0.6149,-0.6145,-0.6127,-0.6127,-0.6157,-0.6156,-0.6134,-0.619,-0.6161,-0.6166,-0.6189,-0.6198,-0.6205,-0.6204,-0.6098,0,0,0,0,0,-0.6145,-0.6159,-0.615,-0.6179,-0.6181,-0.6169,-0.6176,-0.6164,-0.6166,-0.6167,-0.6163,-0.6167,-0.618,-0.6189,-0.6201,-0.6239,-0.6238,-0.6258,-0.6265,-0.627,-0.6275,-0.6296,-0.6305,-0.6211,-0.6211,-0.6211,0,0,-0.6171,-0.6168,-0.6177,-0.6187,-0.6188,-0.6204,-0.617,-0.6188,-0.62,-0.617,-0.6195,-0.6193,-0.6196,-0.6229,-0.6244,-0.6229,-0.6301,-0.6275,-0.628,-0.6281,-0.6301,-0.631,-0.6318,-0.6214,-0.6213,-0.6213,0,0,-0.6226,-0.6225,-0.6249,-0.6251,-0.6252,-0.6244,-0.625,-0.6247,-0.6244,-0.627,-0.6248,-0.6263,-0.6285,-0.6289,-0.6293,-0.6353,-0.6336,-0.6357,-0.6393,-0.6414,-0.6422,-0.6428,-0.645,-0.6458,-0.6362,-0.6362,-0.6362,0,-0.6258,-0.628,-0.6264,-0.6283,-0.6289,-0.6263,-0.6288,-0.6291,-0.6296,-0.6301,-0.6285,-0.6314,-0.6314,-0.6348,-0.6363,-0.6368,-0.6375,-0.6357,-0.6422,-0.6428,-0.6434,-0.6455,-0.6463,-0.6365,-0.6364,-0.6364,-0.6364,0,-0.632,-0.6336,-0.6356,-0.6362,-0.637,-0.6392,-0.638,-0.639,-0.6379,-0.6373,-0.6401,-0.64,-0.6412,-0.6419,-0.6408,-0.6453,-0.6443,-0.6425,-0.6395,-0.6446,-0.6465,-0.6473,-0.6368,-0.6367,-0.6367,-0.6366,0,0,-0.6399,-0.6397,-0.6404,-0.6407,-0.6408,-0.642,-0.6443,-0.6454,-0.6464,-0.6469,-0.6488,-0.6509,-0.6492,-0.6498,-0.6487,-0.6506,-0.6554,-0.6485,-0.6485,-0.6498,-0.6604,-0.6618,-0.6627,-0.6543,-0.6545,-0.6546,-0.6604,0,-0.6453,-0.6489,-0.6476,-0.6514,-0.6529,-0.6506,-0.6526,-0.653,-0.6526,-0.6539,-0.6535,-0.6551,-0.6527,-0.6531,-0.6548,-0.6544,-0.6575,-0.654,-0.6561,-0.6562,-0.656,-0.6637,-0.6651,-0.6706,-0.6611,-0.6613,-0.6614,0,-0.652,-0.6528,-0.6567,-0.6567,-0.6573,-0.6591,-0.6601,-0.6614,-0.6618,-0.6614,-0.6621,-0.6607,-0.6631,-0.6602,-0.6635,-0.6612,-0.662,-0.662,-0.6622,-0.6622,-0.659,-0.664,-0.6723,-0.6731,-0.6625,-0.6624,-0.6623,0,-0.6573,-0.6594,-0.6621,-0.6624,-0.6624,-0.6638,-0.6639,-0.6641,-0.665,-0.6659,-0.6665,-0.6677,-0.6684,-0.6694,-0.6685,-0.6665,-0.6719,-0.669,-0.6717,-0.6718,-0.6729,-0.6728,-0.6814,-0.6735,-0.6735,-0.6735,-0.6735,0,-0.6634,-0.6659,-0.6645,-0.6661,-0.669,-0.6675,-0.6704,-0.6703,-0.6706,-0.6722,-0.6704,-0.672,-0.6707,-0.6723,-0.6716,-0.6744,-0.6748,-0.6746,-0.6743,-0.6747,-0.6747,-0.6751,-0.6747,-0.6737,-0.6737,-0.6736,-0.6736,0,-0.6698,-0.669,-0.6717,-0.6716,-0.6716,-0.6737,-0.6736,-0.6752,-0.6748,-0.6769,-0.6774,-0.6767,-0.6785,-0.6777,-0.6795,-0.679,-0.6827,-0.682,-0.6826,-0.6824,-0.6852,-0.6849,-0.6943,-0.6955,-0.6869,-0.6869,-0.687,0,-0.6737,-0.6756,-0.6757,-0.6767,-0.6769,-0.6785,-0.6793,-0.6781,-0.6791,-0.6798,-0.6814,-0.683,-0.6842,-0.6871,-0.6869,-0.6884,-0.6876,-0.6909,-0.6878,-0.6882,-0.6877,-0.6876,-0.6878,-0.6914,-0.6915,-0.6916,-0.6917,0,-0.6808,-0.6803,-0.6815,-0.6827,-0.6838,-0.6847,-0.6854,-0.6863,-0.6852,-0.6864,-0.6881,-0.6891,-0.6911,-0.6927,-0.694,-0.6943,-0.6928,-0.6926,-0.6934,-0.6937,-0.6939,-0.6939,-0.6842,-0.6924,-0.6923,-0.6923,-0.6922,-0.6922,-0.6861,-0.6877,-0.688,-0.6895,-0.69,-0.6907,-0.6922,-0.692,-0.6935,-0.6949,-0.6942,-0.6963,-0.6969,-0.6985,-0.699,-0.7007,-0.6994,-0.7004,-0.7007,-0.701,-0.7013,-0.6937,-0.7009,-0.7009,-0.7009,-0.7009,-0.7008,0,-0.693,-0.6932,-0.6946,-0.6957,-0.6969,-0.6954,-0.6962,-0.6974,-0.6992,-0.6999,-0.7012,-0.7033,-0.705,-0.7049,-0.7065,-0.7079,-0.7073,-0.7084,-0.7082,-0.7083,-0.7023,-0.7016,-0.7088,-0.7088,-0.7088,-0.7088,-0.7088,-0.7088,-0.6968,-0.6994,-0.6991,-0.702,-0.7022,-0.7042,-0.7048,-0.7055,-0.7061,-0.7085,-0.7099,-0.7098,-0.7103,-0.7119,-0.7134,-0.7134,-0.7141,-0.7154,-0.7151,-0.7095,-0.7087,-0.7079,-0.7072,-0.7155,-0.7155,-0.7209,-0.7209,-0.721]},{"header":{"parameterUnit":"m.s-1","parameterCategory":1,"la1":30.2991,"la2":30.254,"lo1":-89.0895,"lo2":-89.0444,"dy":0.0017,"dx":0.0017,"nx":28,"ny":28,"refTime":"2024-06-04T03:00:00:Z","depth":0,"parameterNumber":3,"parameterNumberName":"V-component_of_WINDS"},"data":[0,0,0,0,0,0,0,0,0,0,0,0,0,0,0,0,0,0,0,0,0,0,0,0,0,0,0,0,0,0,0,0,0,0,0,0,0,0,0,0,0,0,0,0,0,0,0,0,0,0,0,0,0,0,0,0,0,0,4.4062,4.4061,0,4.3968,4.3967,4.3966,4.3943,4.3944,4.3945,4.3945,4.384,4.3836,4.3833,0,0,0,0,0,0,0,0,0,0,0,0,0,4.4215,4.4213,4.4063,4.4061,4.406,4.3968,4.3967,4.3966,4.3943,4.3944,4.3945,4.3945,4.3841,4.3837,4.3833,0,0,0,0,0,0,0,0,0,0,0,0,0,4.4137,4.4212,4.4063,4.4038,4.4035,4.3968,4.3967,4.3965,4.3943,4.3944,4.3945,4.3946,4.3842,4.3837,4.3832,4.3781,0,0,4.3816,4.3814,0,0,0,0,0,0,0,0,4.4142,4.4132,4.4043,4.404,4.4036,4.3969,4.3982,4.3903,4.3943,4.3978,4.3945,4.3946,4.3881,4.3873,4.3853,4.3776,4.3771,4.3816,4.3813,4.3811,4.3809,0,0,0,0,0,0,0,4.4147,4.4136,4.4025,4.4042,4.4037,4.4029,4.4019,4.3967,4.3925,4.3975,4.3973,4.3962,4.3879,4.3858,4.385,4.377,4.3816,4.3812,4.3808,4.3806,4.3644,4.3643,0,0,0,0,0,0,4.4158,4.414,4.4028,4.4022,4.4093,4.4025,4.4014,4.3989,4.3925,4.3917,4.3962,4.3962,4.3866,4.3856,4.3846,4.3781,4.3811,4.3806,4.3803,4.3646,4.3644,4.3643,0,0,0,0,0,0,4.4162,4.4148,4.4032,4.4081,4.4065,4.4022,4.3994,4.3987,4.3965,4.3916,4.3907,4.3948,4.3866,4.3853,4.3798,4.3777,4.3804,4.3799,4.3647,4.3645,4.3643,4.3651,0,0,0,0,0,0,4.4166,4.415,4.4132,4.4081,4.4063,4.3987,4.3992,4.3984,4.3957,4.3956,4.39,4.3892,4.3866,4.3805,4.3792,4.3771,4.3795,4.3649,4.3646,4.3644,4.3653,4.365,4.3648,0,0,0,0,0,4.4172,4.4136,4.4131,4.4118,4.404,4.3986,4.3975,4.3949,4.3956,4.3936,4.3904,4.3894,4.3782,4.38,4.3785,4.3761,4.365,4.3647,4.3644,4.3654,4.365,4.3648,0,0,0,0,0,0,4.4183,4.4129,4.4123,4.407,4.4033,4.3982,4.3957,4.3947,4.3905,4.3905,4.3872,4.3859,4.3805,4.3777,4.3799,4.3708,4.3716,4.371,4.3728,4.3724,4.3722,4.3729,4.3791,0,0,0,0,0,4.418,4.4143,4.4097,4.4055,4.4037,4.4,4.3976,4.3959,4.3918,4.3901,4.3865,4.3824,4.3779,4.375,4.3706,4.3649,4.3635,4.3625,4.3623,4.3621,4.3616,4.3582,4.3577,4.3634,4.3634,4.3634,0,0,4.4172,4.4138,4.4116,4.4056,4.4026,4.3986,4.3987,4.3945,4.3914,4.3894,4.384,4.3812,4.3763,4.3706,4.3679,4.3681,4.3597,4.3617,4.3616,4.3612,4.3579,4.3573,4.3568,4.3632,4.3632,4.3632,0,0,4.4137,4.4109,4.4071,4.404,4.3995,4.3971,4.3962,4.3913,4.3894,4.384,4.3824,4.3785,4.3709,4.3675,4.3648,4.3601,4.3589,4.3587,4.3574,4.3541,4.3537,4.3532,4.3515,4.3509,4.3582,4.3582,4.3582,0,4.4132,4.4075,4.4051,4.4011,4.3984,4.3967,4.3926,4.3897,4.3838,4.3819,4.3823,4.3728,4.3694,4.3628,4.3617,4.3595,4.3582,4.3593,4.354,4.3535,4.3531,4.3513,4.3507,4.3582,4.3582,4.3582,4.3582,0,4.4071,4.4031,4.4005,4.3952,4.3922,4.3882,4.3849,4.3821,4.3807,4.3782,4.3725,4.3684,4.3632,4.3615,4.3599,4.3546,4.3549,4.3547,4.3554,4.3526,4.3509,4.3502,4.3583,4.3583,4.3583,4.3583,0,0,4.404,4.3976,4.3966,4.3942,4.3891,4.3858,4.3816,4.3767,4.3744,4.3703,4.3666,4.3602,4.36,4.3569,4.355,4.3521,4.3485,4.3522,4.3521,4.3516,4.3423,4.3424,4.3417,4.3478,4.3476,4.3475,4.3427,0,4.3998,4.3926,4.3903,4.3841,4.3803,4.3786,4.3749,4.3712,4.3687,4.3649,4.362,4.3575,4.3576,4.3558,4.3529,4.3496,4.3466,4.3499,4.344,4.3438,4.3452,4.3408,4.3409,4.3366,4.342,4.3419,4.3418,0,4.394,4.3903,4.3838,4.3792,4.3775,4.3742,4.3696,4.366,4.3617,4.3601,4.3567,4.355,4.3502,4.3513,4.3445,4.3469,4.3443,4.3423,4.342,4.3413,4.3426,4.3398,4.3351,4.3344,4.3407,4.3408,4.3409,0,4.3923,4.3856,4.3809,4.3788,4.3733,4.3711,4.3686,4.3645,4.3617,4.3575,4.3556,4.3508,4.3481,4.3444,4.3413,4.3424,4.3348,4.3356,4.3331,4.3331,4.3315,4.3316,4.3261,4.33,4.33,4.33,4.33,0,4.3879,4.384,4.3801,4.3771,4.3726,4.3699,4.3654,4.3628,4.3591,4.3554,4.3535,4.35,4.3463,4.3422,4.3397,4.3345,4.3333,4.3316,4.331,4.3318,4.332,4.3299,4.3301,4.3298,4.3298,4.3299,4.3299,0,4.3852,4.3825,4.3772,4.3725,4.3712,4.3681,4.3639,4.3608,4.3583,4.3536,4.3524,4.3483,4.3434,4.34,4.3337,4.332,4.3263,4.3257,4.3278,4.3275,4.3251,4.3254,4.3181,4.317,4.3217,4.3216,4.3216,0,4.3825,4.3795,4.3746,4.3722,4.3698,4.3659,4.3631,4.3602,4.3574,4.3522,4.3497,4.3448,4.3407,4.333,4.3292,4.3243,4.3236,4.3214,4.3228,4.3236,4.3234,4.3236,4.3232,4.3211,4.3211,4.3211,4.321,0,4.3781,4.3769,4.3731,4.3689,4.3657,4.3621,4.3585,4.3565,4.3529,4.3498,4.3449,4.3418,4.3354,4.3305,4.3253,4.3224,4.321,4.3206,4.3198,4.3205,4.3218,4.3209,4.3271,4.3208,4.3208,4.3208,4.3208,4.3208,4.3752,4.3725,4.3686,4.3644,4.3615,4.3581,4.355,4.3522,4.3482,4.3431,4.3415,4.3365,4.3321,4.325,4.322,4.3178,4.3179,4.3167,4.3164,4.3161,4.3161,4.3226,4.3168,4.3168,4.3168,4.3168,4.3169,0,4.3706,4.368,4.3643,4.3594,4.3561,4.3554,4.3514,4.3485,4.3442,4.3404,4.3365,4.3308,4.326,4.322,4.3169,4.3143,4.3135,4.3131,4.3132,4.3125,4.3163,4.3175,4.3138,4.3138,4.3138,4.3138,4.3138,4.3138,4.3678,4.3631,4.3614,4.3551,4.3525,4.3477,4.3455,4.3423,4.3392,4.3331,4.3292,4.3267,4.3227,4.3174,4.3129,4.3118,4.3099,4.3096,4.3083,4.3119,4.3122,4.3126,4.3137,4.3092,4.3092,4.3049,4.3048,4.3048]}]]